Change the Weather History Date:

Friday, May 3, 2013

  Actual Average Record
Temperature  
Mean Temperature 35 °F -  
Max Temperature 37 °F 65 °F 86 °F (2000)
Min Temperature 33 °F 44 °F 30 °F (2002)
Degree Days  
Heating Degree Days 30    
Moisture  
Dew Point 29 °F    
Average Humidity 79    
Maximum Humidity 89    
Minimum Humidity 62    
Precipitation  
Precipitation 0.04 in - - ()
Sea Level Pressure  
Sea Level Pressure 30.23 in    
Wind  
Wind Speed 12 mph (NNE)    
Max Wind Speed 18 mph    
Max Gust Speed 28 mph    
Visibility 6 miles    
Events Fog , Rain , Snow    
Averages and records for this station are not official NWS values.
T = Trace of Precipitation, MM = Missing Value Source: NWS Daily Summary

Daily Weather History Graph

Daily Weather History Graph

Search for Another Location

Airport or City:

Trip Planner

Search our weather history database for the weather conditions in past years. The results will help you decide how hot, cold, wet, or windy it might be!

Date:

Astronomy

May. 03, 2013 Rise Set
Actual Time 6:00 AM CDT 8:21 PM CDT
Civil Twilight 5:27 AM CDT 8:54 PM CDT
Nautical Twilight 4:47 AM CDT 9:35 PM CDT
Astronomical Twilight 4:02 AM CDT 10:20 PM CDT
Moon 2:41 AM CDT (5/3) 2:01 PM CDT (5/3)
Length of Visible Light 15h 26m
Length of Day
14h 21m
Last Quarter, 37% of the Moon is Illuminated
May 3
Last Quarter
May 9
New
May 17
First Quarter
May 24
Full
May 31
Last Quarter

Hourly Weather History & Observations

Time (CDT) Temp. Windchill Dew Point Humidity Pressure Visibility Wind Dir Wind Speed Gust Speed Precip Events Conditions
12:53 AM 36.0 °F 29.6 °F 24.1 °F 62% 30.42 in 10.0 mi North 8.1 mph - N/A   Clear
1:53 AM 36.0 °F 28.0 °F 24.1 °F 62% 30.40 in 10.0 mi North 11.5 mph - N/A   Clear
3:53 AM 34.0 °F 27.2 °F 23.0 °F 64% 30.36 in 10.0 mi North 8.1 mph - N/A   Clear
4:53 AM 33.1 °F 26.1 °F 23.0 °F 66% 30.35 in 10.0 mi North 8.1 mph - N/A   Clear
5:53 AM 33.1 °F 24.4 °F 23.0 °F 66% 30.34 in 10.0 mi North 11.5 mph - N/A   Clear
6:53 AM 33.1 °F 24.4 °F 24.1 °F 70% 30.32 in 10.0 mi NNE 11.5 mph - N/A   Mostly Cloudy
7:53 AM 34.0 °F 25.0 °F 24.1 °F 67% 30.32 in 10.0 mi North 12.7 mph - N/A   Overcast
8:15 AM 33.8 °F 24.3 °F 24.8 °F 70% 30.29 in 5.0 mi NNE 13.8 mph 19.6 mph 0.00 in Snow Light Snow
8:27 AM 33.8 °F 24.3 °F 24.8 °F 70% 30.29 in 2.0 mi NNE 13.8 mph 19.6 mph 0.00 in Snow Light Snow
8:38 AM 33.8 °F 25.8 °F 26.6 °F 75% 30.28 in 1.8 mi NNE 10.4 mph 19.6 mph 0.00 in Snow Light Snow
8:53 AM 33.1 °F 23.4 °F 27.0 °F 78% 30.31 in 1.0 mi North 13.8 mph 20.7 mph 0.00 in Snow Light Snow
9:31 AM 33.8 °F 27.0 °F 28.4 °F 81% 30.27 in 1.0 mi North 8.1 mph 17.3 mph 0.00 in Snow Light Snow
9:48 AM 33.8 °F 25.3 °F 28.4 °F 81% 30.27 in 1.2 mi North 11.5 mph - 0.00 in Snow Light Snow
9:53 AM 33.1 °F 24.9 °F 28.9 °F 85% 30.30 in 1.0 mi North 10.4 mph 18.4 mph 0.00 in Snow Light Snow
9:57 AM 33.8 °F 24.8 °F 28.4 °F 81% 30.26 in 0.8 mi North 12.7 mph 18.4 mph 0.00 in Snow Light Snow
10:14 AM 33.8 °F 25.8 °F 28.4 °F 81% 30.27 in 0.5 mi North 10.4 mph - 0.00 in Fog , Snow Snow
10:44 AM 33.8 °F 25.3 °F 30.2 °F 87% 30.27 in 0.8 mi North 11.5 mph - 0.01 in Snow Light Snow
10:53 AM 33.1 °F 24.9 °F 30.0 °F 89% 30.29 in 1.0 mi North 10.4 mph - 0.01 in Snow Light Snow
11:40 AM 33.8 °F 24.3 °F 30.2 °F 87% 30.24 in 1.8 mi North 13.8 mph 18.4 mph 0.01 in Snow Light Snow
11:53 AM 35.1 °F 26.4 °F 30.0 °F 82% 30.27 in 1.8 mi North 12.7 mph 20.7 mph 0.01 in Snow Light Snow
12:00 PM 35.6 °F 28.0 °F 30.2 °F 81% 30.23 in 1.5 mi North 10.4 mph 20.7 mph 0.00 in Snow Light Snow
12:21 PM 35.6 °F 26.6 °F 30.2 °F 81% 30.22 in 2.0 mi North 13.8 mph 20.7 mph 0.00 in Snow Light Snow
12:32 PM 35.6 °F 27.1 °F 30.2 °F 81% 30.21 in 2.0 mi North 12.7 mph 21.9 mph 0.00 in Snow Light Snow
12:40 PM 35.6 °F 25.9 °F 30.2 °F 81% 30.21 in 1.5 mi North 16.1 mph 23.0 mph 0.00 in Snow Light Snow
12:53 PM 36.0 °F 27.5 °F 32.0 °F 86% 30.23 in 1.8 mi North 12.7 mph 21.9 mph 0.00 in Snow Light Snow
1:04 PM 35.6 °F 27.5 °F 32.0 °F 87% 30.20 in 3.0 mi North 11.5 mph 18.4 mph 0.00 in Snow Light Snow
1:53 PM 37.0 °F 28.1 °F 32.0 °F 82% 30.21 in 8.0 mi NNE 15.0 mph 20.7 mph 0.00 in Rain Light Rain
2:33 PM 37.4 °F 28.9 °F 32.0 °F 81% 30.17 in 9.0 mi NNE 13.8 mph 20.7 mph 0.00 in Rain Light Rain
2:48 PM 37.4 °F 29.8 °F 32.0 °F 81% 30.18 in 8.0 mi NNE 11.5 mph 21.9 mph 0.00 in Rain Light Rain
2:53 PM 37.0 °F 28.9 °F 32.0 °F 82% 30.21 in 7.0 mi NNE 12.7 mph 21.9 mph 0.00 in Rain Light Rain
3:02 PM 37.4 °F 28.9 °F 32.0 °F 81% 30.17 in 6.0 mi NNE 13.8 mph 21.9 mph 0.00 in Rain Light Rain
3:15 PM 37.4 °F 28.5 °F 32.0 °F 81% 30.17 in 7.0 mi NNE 15.0 mph 23.0 mph 0.00 in Rain Light Rain
3:28 PM 37.4 °F 29.3 °F 32.0 °F 81% 30.17 in 6.0 mi NNE 12.7 mph 20.7 mph 0.00 in Rain Light Rain
3:53 PM 37.0 °F 28.9 °F 32.0 °F 82% 30.19 in 8.0 mi NNE 12.7 mph 19.6 mph 0.01 in Rain Light Rain
4:29 PM 35.6 °F 26.6 °F 30.2 °F 81% 30.15 in 10.0 mi NNE 13.8 mph 24.2 mph 0.00 in Rain Light Rain
4:53 PM 37.0 °F 29.3 °F 30.9 °F 79% 30.18 in 10.0 mi NNE 11.5 mph 24.2 mph 0.00 in   Overcast
5:53 PM 36.0 °F 26.3 °F 30.0 °F 79% 30.19 in 10.0 mi NNE 16.1 mph 23.0 mph 0.00 in   Overcast
6:53 PM 35.1 °F 26.4 °F 30.0 °F 82% 30.20 in 5.0 mi NE 12.7 mph 20.7 mph 0.00 in Rain Light Rain
7:28 PM 35.6 °F 28.0 °F 30.2 °F 81% 30.15 in 10.0 mi NNE 10.4 mph - 0.00 in Rain Light Rain
7:48 PM 35.6 °F 26.6 °F 30.2 °F 81% 30.15 in 6.0 mi NNE 13.8 mph 23.0 mph 0.00 in Rain Light Rain
7:53 PM 35.1 °F 24.5 °F 30.0 °F 82% 30.18 in 7.0 mi NNE 18.4 mph 27.6 mph 0.00 in Rain Light Rain
8:53 PM 35.1 °F 26.4 °F 30.0 °F 82% 30.17 in 10.0 mi NNE 12.7 mph 21.9 mph 0.00 in Rain Light Rain
9:08 PM 35.6 °F 26.2 °F 30.2 °F 81% 30.15 in 8.0 mi NNE 15.0 mph 24.2 mph 0.01 in Rain Light Rain
9:45 PM 33.8 °F 23.9 °F 28.4 °F 81% 30.15 in 9.0 mi NE 15.0 mph 23.0 mph 0.01 in Rain Light Rain
9:53 PM 34.0 °F 24.6 °F 30.0 °F 85% 30.19 in 9.0 mi NNE 13.8 mph 20.7 mph 0.01 in Rain Light Rain
10:19 PM 33.8 °F 25.3 °F 30.2 °F 87% 30.16 in 10.0 mi NNE 11.5 mph - 0.00 in   Overcast
10:53 PM 34.0 °F 26.6 °F 30.0 °F 85% 30.19 in 10.0 mi NNE 9.2 mph - 0.00 in   Overcast
11:53 PM 34.0 °F 25.0 °F 30.0 °F 85% 30.17 in 10.0 mi NNE 12.7 mph - N/A   Overcast